When you browse on this site, cookies collect data to enhance your experience and personalize the content and advertising you see.
Visit our Privacy Policy to learn more. By continuing to use the site, you agree to this use of cookies and data.
  • In Schweiz
  • Länderverzeichnis
  • Für 7 Tage
  • Wassertemperatur
  • Satellitenkarten
  • Wetterkarte
  • Widgets
  • user-avatar
    Anmelden

    Stündliche Wetter Ulanovka

    Heute, 16 Juni, Sonntag

    Zeit Temperatur Niederschläge Wind Luftdruck Luftfeuchtigkeit
    00:00 +16°C° 0 mm 1 m/S 741 mmHg 86%
    01:00 +15°C° 0 mm 1 m/S 742 mmHg 88%
    02:00 +14°C° 0 mm 1 m/S 742 mmHg 90%
    03:00 +13°C° 0 mm 1 m/S 742 mmHg 92%
    04:00 +13°C° 0 mm 1 m/S 742 mmHg 91%
    05:00 +14°C° 0 mm 1 m/S 741 mmHg 91%
    06:00 +15°C° 0 mm 1 m/S 741 mmHg 91%
    07:00 +16°C° 0.1 mm 1 m/S 742 mmHg 87%
    08:00 +18°C° 0.1 mm 1 m/S 742 mmHg 83%
    09:00 +20°C° 0.1 mm 1 m/S 742 mmHg 80%
    10:00 +20°C° 0.5 mm 1 m/S 742 mmHg 78%
    11:00 +20°C° 0.5 mm 2 m/S 742 mmHg 76%
    12:00 +20°C° 0.5 mm 2 m/S 742 mmHg 74%
    13:00 +21°C° 0.3 mm 3 m/S 742 mmHg 73%
    14:00 +21°C° 0.3 mm 3 m/S 742 mmHg 72%
    15:00 +22°C° 0.3 mm 3 m/S 742 mmHg 71%
    16:00 +21°C° 0.1 mm 3 m/S 742 mmHg 73%
    17:00 +21°C° 0.1 mm 3 m/S 742 mmHg 74%
    18:00 +21°C° 0.1 mm 2 m/S 741 mmHg 75%
    19:00 +20°C° 0 mm 2 m/S 742 mmHg 79%
    20:00 +18°C° 0 mm 2 m/S 742 mmHg 84%
    21:00 +18°C° 0 mm 1 m/S 742 mmHg 88%
    22:00 +16°C° 0 mm 1 m/S 742 mmHg 88%
    23:00 +16°C° 0 mm 1 m/S 742 mmHg 89%

    Morgen, 17 Juni, Montag

    Zeit Temperatur Niederschläge Wind Luftdruck Luftfeuchtigkeit
    00:00 +15°C° 0 mm 1 m/S 742 mmHg 89%
    01:00 +15°C° 0 mm 1 m/S 742 mmHg 89%
    02:00 +14°C° 0 mm 1 m/S 742 mmHg 90%
    03:00 +14°C° 0 mm 1 m/S 743 mmHg 90%
    04:00 +15°C° 0 mm 1 m/S 743 mmHg 89%
    05:00 +15°C° 0 mm 0 m/S 743 mmHg 88%
    06:00 +15°C° 0 mm 0 m/S 743 mmHg 86%
    07:00 +19°C° 0 mm 1 m/S 743 mmHg 82%
    08:00 +20°C° 0 mm 1 m/S 743 mmHg 78%
    09:00 +22°C° 0 mm 1 m/S 743 mmHg 73%
    10:00 +22°C° 0.1 mm 1 m/S 743 mmHg 70%
    11:00 +23°C° 0.1 mm 2 m/S 743 mmHg 66%
    12:00 +24°C° 0.1 mm 2 m/S 743 mmHg 63%
    13:00 +24°C° 0.1 mm 2 m/S 743 mmHg 64%
    14:00 +24°C° 0.1 mm 2 m/S 742 mmHg 64%
    15:00 +24°C° 0.1 mm 3 m/S 742 mmHg 65%
    16:00 +24°C° 0.1 mm 3 m/S 742 mmHg 69%
    17:00 +24°C° 0.1 mm 3 m/S 742 mmHg 73%
    18:00 +22°C° 0.1 mm 3 m/S 742 mmHg 76%
    19:00 +21°C° 0 mm 3 m/S 742 mmHg 80%
    20:00 +19°C° 0 mm 2 m/S 742 mmHg 83%
    21:00 +18°C° 0 mm 2 m/S 742 mmHg 86%
    22:00 +17°C° 0 mm 2 m/S 742 mmHg 85%
    23:00 +18°C° 0 mm 1 m/S 742 mmHg 85%

    übermorgen, 18 Juni, Dienstag

    Zeit Temperatur Niederschläge Wind Luftdruck Luftfeuchtigkeit
    00:00 +18°C° 0 mm 1 m/S 742 mmHg 84%
    01:00 +18°C° 0 mm 1 m/S 742 mmHg 83%
    02:00 +18°C° 0 mm 1 m/S 742 mmHg 82%
    03:00 +18°C° 0 mm 1 m/S 742 mmHg 80%
    04:00 +18°C° 0 mm 1 m/S 742 mmHg 81%
    05:00 +19°C° 0 mm 1 m/S 742 mmHg 82%
    06:00 +19°C° 0 mm 1 m/S 742 mmHg 83%
    07:00 +20°C° 0 mm 1 m/S 742 mmHg 83%
    08:00 +19°C° 0 mm 2 m/S 742 mmHg 83%
    09:00 +19°C° 0 mm 2 m/S 742 mmHg 83%
    10:00 +20°C° 0.1 mm 2 m/S 742 mmHg 81%
    11:00 +20°C° 0.1 mm 2 m/S 742 mmHg 80%
    12:00 +21°C° 0.1 mm 2 m/S 742 mmHg 79%
    13:00 +23°C° 0.1 mm 2 m/S 742 mmHg 76%
    14:00 +24°C° 0.1 mm 3 m/S 742 mmHg 73%
    15:00 +24°C° 0.1 mm 3 m/S 742 mmHg 70%
    16:00 +25°C° 0 mm 3 m/S 742 mmHg 70%
    17:00 +25°C° 0 mm 2 m/S 742 mmHg 70%
    18:00 +25°C° 0 mm 2 m/S 742 mmHg 71%
    19:00 +23°C° 0 mm 2 m/S 742 mmHg 73%
    20:00 +21°C° 0 mm 1 m/S 742 mmHg 75%
    21:00 +20°C° 0 mm 1 m/S 742 mmHg 78%
    22:00 +19°C° 0 mm 1 m/S 742 mmHg 78%
    23:00 +18°C° 0 mm 2 m/S 743 mmHg 78%

    19 Juni, Mittwoch

    Zeit Temperatur Niederschläge Wind Luftdruck Luftfeuchtigkeit
    00:00 +17°C° 0 mm 2 m/S 743 mmHg 78%
    01:00 +17°C° 0 mm 2 m/S 743 mmHg 80%
    02:00 +16°C° 0 mm 2 m/S 743 mmHg 82%
    03:00 +16°C° 0 mm 2 m/S 743 mmHg 84%
    04:00 +17°C° 0 mm 2 m/S 743 mmHg 85%
    05:00 +17°C° 0 mm 2 m/S 744 mmHg 85%
    06:00 +18°C° 0 mm 2 m/S 744 mmHg 86%
    07:00 +19°C° 0 mm 3 m/S 744 mmHg 81%
    08:00 +20°C° 0 mm 3 m/S 744 mmHg 76%
    09:00 +21°C° 0 mm 3 m/S 744 mmHg 72%
    10:00 +22°C° 0 mm 3 m/S 744 mmHg 67%
    11:00 +24°C° 0 mm 3 m/S 745 mmHg 62%
    12:00 +25°C° 0 mm 3 m/S 745 mmHg 57%
    13:00 +25°C° 0 mm 3 m/S 745 mmHg 58%
    14:00 +26°C° 0 mm 3 m/S 745 mmHg 59%
    15:00 +26°C° 0 mm 4 m/S 745 mmHg 60%
    16:00 +26°C° 0 mm 3 m/S 745 mmHg 64%
    17:00 +25°C° 0 mm 3 m/S 745 mmHg 67%
    18:00 +25°C° 0 mm 2 m/S 745 mmHg 70%
    19:00 +24°C° 0 mm 2 m/S 745 mmHg 71%
    20:00 +21°C° 0 mm 2 m/S 745 mmHg 73%
    21:00 +19°C° 0 mm 2 m/S 745 mmHg 74%
    22:00 +19°C° 0 mm 1 m/S 745 mmHg 75%
    23:00 +19°C° 0 mm 1 m/S 745 mmHg 76%

    20 Juni, Donnerstag

    Zeit Temperatur Niederschläge Wind Luftdruck Luftfeuchtigkeit
    00:00 +18°C° 0 mm 1 m/S 745 mmHg 76%
    01:00 +18°C° 0 mm 1 m/S 745 mmHg 77%
    02:00 +16°C° 0 mm 1 m/S 745 mmHg 78%
    03:00 +16°C° 0 mm 1 m/S 746 mmHg 79%
    04:00 +18°C° 0 mm 1 m/S 746 mmHg 80%
    05:00 +18°C° 0 mm 1 m/S 746 mmHg 80%
    06:00 +19°C° 0 mm 1 m/S 746 mmHg 81%
    07:00 +21°C° 0 mm 1 m/S 746 mmHg 76%
    08:00 +20°C° 0 mm 0 m/S 746 mmHg 71%
    09:00 +22°C° 0 mm 0 m/S 746 mmHg 66%
    10:00 +23°C° 0 mm 0 m/S 746 mmHg 62%
    11:00 +24°C° 0 mm 0 m/S 746 mmHg 57%
    12:00 +25°C° 0 mm 0 m/S 746 mmHg 52%
    13:00 +27°C° 0 mm 1 m/S 746 mmHg 50%
    14:00 +27°C° 0 mm 1 m/S 746 mmHg 49%
    15:00 +28°C° 0 mm 1 m/S 746 mmHg 48%
    16:00 +27°C° 0 mm 1 m/S 746 mmHg 52%
    17:00 +27°C° 0 mm 1 m/S 746 mmHg 57%
    18:00 +27°C° 0 mm 1 m/S 746 mmHg 61%
    19:00 +25°C° 0 mm 1 m/S 746 mmHg 63%
    20:00 +23°C° 0 mm 1 m/S 746 mmHg 64%
    21:00 +21°C° 0 mm 1 m/S 746 mmHg 65%
    22:00 +21°C° 0 mm 1 m/S 746 mmHg 67%
    23:00 +20°C° 0 mm 1 m/S 746 mmHg 68%

    21 Juni, Freitag

    Zeit Temperatur Niederschläge Wind Luftdruck Luftfeuchtigkeit
    00:00 +18°C° 0 mm 2 m/S 746 mmHg 69%
    01:00 +19°C° 0 mm 1 m/S 746 mmHg 72%
    02:00 +18°C° 0 mm 1 m/S 746 mmHg 74%
    03:00 +18°C° 0 mm 1 m/S 746 mmHg 77%
    04:00 +19°C° 0 mm 1 m/S 746 mmHg 78%
    05:00 +19°C° 0 mm 1 m/S 746 mmHg 80%
    06:00 +20°C° 0 mm 1 m/S 747 mmHg 81%
    07:00 +21°C° 0 mm 1 m/S 747 mmHg 77%
    08:00 +23°C° 0 mm 2 m/S 747 mmHg 73%
    09:00 +24°C° 0 mm 2 m/S 747 mmHg 68%
    10:00 +25°C° 0 mm 2 m/S 747 mmHg 65%
    11:00 +26°C° 0 mm 3 m/S 747 mmHg 61%
    12:00 +27°C° 0 mm 3 m/S 746 mmHg 57%
    13:00 +27°C° 0 mm 3 m/S 746 mmHg 57%
    14:00 +27°C° 0 mm 4 m/S 746 mmHg 58%
    15:00 +28°C° 0 mm 4 m/S 746 mmHg 58%
    16:00 +27°C° 0 mm 3 m/S 745 mmHg 63%
    17:00 +27°C° 0 mm 3 m/S 745 mmHg 67%
    18:00 +27°C° 0 mm 2 m/S 745 mmHg 71%
    19:00 +25°C° 0 mm 2 m/S 745 mmHg 74%
    20:00 +24°C° 0 mm 2 m/S 745 mmHg 77%
    21:00 +21°C° 0 mm 2 m/S 745 mmHg 80%
    22:00 +20°C° 0 mm 2 m/S 745 mmHg 82%
    23:00 +20°C° 0 mm 2 m/S 745 mmHg 84%
    Mehr zeigen